This is the latest recevied weather packets stored in our database for station/object WP3OF. If no packets are shown the sender has not sent any weather packets the latest 1 day(s).
| Time | Temp. | Humidity | Pressure | Rain* | Wind** | Luminosity | Snow |
|---|---|---|---|---|---|---|---|
| 1777985566 | - | - | - | 0 mm | 0.89 m/s, 115° | - | - |
| 1777985262 | - | - | - | 0 mm | 0.89 m/s, 40° | - | - |
| 1777984959 | - | - | - | 0 mm | 2.24 m/s, 67° | - | - |
| 1777984654 | - | - | - | 0 mm | 0 m/s | - | - |
| 1777984351 | - | - | - | 0 mm | 0 m/s | - | - |
| 1777984048 | - | - | - | 0 mm | 0.89 m/s, 63° | - | - |
| 1777983745 | - | - | - | 0 mm | 0.89 m/s, 95° | - | - |
| 1777983442 | - | - | - | 0 mm | 2.24 m/s, 117° | - | - |
| 1777983139 | - | - | - | 0 mm | 0.89 m/s, 51° | - | - |
| 1777982835 | - | - | - | 0 mm | 1.34 m/s, 55° | - | - |
| 1777982531 | - | - | - | 0 mm | 1.34 m/s, 48° | - | - |
| 1777982224 | - | - | - | 0 mm | 1.34 m/s, 72° | - | - |
| 1777981923 | - | - | - | 0 mm | 0.89 m/s, 79° | - | - |
| 1777981620 | - | - | - | 0 mm | 0.45 m/s, 35° | - | - |
| 1777981316 | - | - | - | 0 mm | 0 m/s | - | - |
| 1777981013 | - | - | - | 0 mm | 0 m/s | - | - |
| 1777980709 | - | - | - | 0 mm | 0.45 m/s, 167° | - | - |
| 1777980406 | - | - | - | 0 mm | 0.89 m/s, 129° | - | - |
| 1777980104 | - | - | - | 0 mm | 0.45 m/s, 150° | - | - |
| 1777979803 | - | - | - | 0 mm | 0.45 m/s, 94° | - | - |
| 1777979499 | - | - | - | 0 mm | 0.45 m/s, 121° | - | - |
| 1777979195 | - | - | - | 0 mm | 0.45 m/s, 148° | - | - |
| 1777978893 | - | - | - | 0 mm | 0.45 m/s, 148° | - | - |
| 1777978589 | - | - | - | 0 mm | 0.45 m/s, 141° | - | - |
| 1777978285 | - | - | - | 0 mm | 1.34 m/s, 138° | - | - |
* Rain latest hour (hover to see other rain measurements)
** Current wind speed in m/s (hover to see current wind gust speed)